Content
SEND FEEDBACK

Daily
Averages
Monthly
Summary
United States of America

SYRACUSE, NEW YORK


Home > North America > United States > New York
Elevation: 421 feet     Latitude: 43 07N     Longitude: 076 07W

WEATHER
 
SELECT A DAY
Number of Records: 223,832;   Date Range: 1/1/95 - 7/26/14
 
SHARE

PRINT THIS DATA

[ ← Previous Day ]
WEATHER ALMANAC - APRIL 30, 2013
[ Next Day → ]
[ °C ]   °F
Weather ElementAverageHighLow
Temperature60.9 °F68 °F (1:54 pm)54 °F (6:54 am)
Dewpoint48.4 °F50 °F (8:54 am)46 °F (10:54 pm)
Humidity64.3 %80 % (6:54 am)50 % (6:54 pm)
Barometer30.19 in30.25 in (11:54 pm)30.11 in (1:54 am)
Wind Speed9.8 mph18.4 mph (12:54 pm)
Wind Gust24.2 mph (12:54 pm)
Weather ElementAverage
Visibility10 mi
Wind DirectionSSE (141.2 °)

Weather ElementTotal
Precipitation---
Heating Degree Days4 (Base 65)
Growing Degree Days11 (Base 50)
Averaged from 26 records on April 30, 2013
WEATHER CONDITIONS BREAKOUT
WIND DIRECTION BREAKOUT
WEATHER BY HOUR - APRIL 30, 2013
[ °C ]   °F
Local TimeTemperatureDewpointHumidityBarometerVisibilityWind DirectionWind SpeedGust SpeedPrecipitationEventsConditions
1:54 AM55.0 °F46.9 °F74 %30.11 in10.0 miSE (140°)12.7 mphScattered Clouds
2:54 AM55.0 °F46.9 °F74 %30.12 in10.0 miESE (110°)6.9 mphOvercast
3:54 AM55.0 °F46.9 °F74 %30.13 in10.0 miESE (110°)5.8 mphOvercast
4:54 AM55.0 °F46.9 °F74 %30.14 in10.0 miESE (120°)8.1 mphOvercast
5:41 AM55.4 °F48.2 °F77 %30.16 in10.0 miESE (120°)8.1 mphOvercast
5:54 AM55.0 °F48.0 °F77 %30.15 in10.0 miEast (100°)8.1 mphOvercast
6:54 AM54.0 °F48.0 °F80 %30.18 in10.0 miEast (100°)6.9 mphOvercast
7:54 AM57.9 °F48.9 °F72 %30.19 in10.0 miEast (100°)8.1 mphOvercast
8:26 AM57.2 °F48.2 °F72 %30.20 in10.0 miESE (110°)8.1 mphOvercast
8:54 AM59.0 °F50.0 °F72 %30.20 in10.0 miESE (120°)8.1 mphMostly Cloudy
9:54 AM61.0 °F50.0 °F67 %30.19 in10.0 miSE (140°)10.4 mphOvercast
10:24 AM60.8 °F50.0 °F68 %30.21 in10.0 miSSE (160°)5.8 mphOvercast
10:54 AM64.0 °F50.0 °F60 %30.19 in10.0 miSouth (190°)16.1 mph23.0 mphOvercast
11:54 AM64.9 °F50.0 °F58 %30.21 in10.0 miSSW (210°)15.0 mphOvercast
12:54 PM66.0 °F48.9 °F54 %30.20 in10.0 miSouth (190°)18.4 mph24.2 mphMostly Cloudy
1:54 PM68.0 °F50.0 °F52 %30.21 in10.0 miSW (220°)15.0 mphOvercast
2:54 PM66.0 °F48.9 °F54 %30.22 in10.0 miSSW (200°)16.1 mph19.6 mphOvercast
3:54 PM66.0 °F50.0 °F56 %30.22 in10.0 miSouth (190°)11.5 mphOvercast
4:54 PM66.0 °F50.0 °F56 %30.21 in10.0 miSE (140°)11.5 mphMostly Cloudy
5:54 PM68.0 °F50.0 °F52 %30.20 in10.0 miSouth (170°)10.4 mphMostly Cloudy
6:54 PM68.0 °F48.9 °F50 %30.19 in10.0 miSE (130°)12.7 mphMostly Cloudy
7:54 PM64.9 °F48.0 °F54 %30.19 in10.0 miSE (140°)10.4 mphScattered Clouds
8:54 PM63.0 °F46.9 °F56 %30.21 in10.0 miSSE (150°)9.2 mphMostly Cloudy
9:54 PM60.1 °F46.9 °F62 %30.22 in10.0 miSSE (160°)4.6 mphMostly Cloudy
10:54 PM59.0 °F46.0 °F62 %30.22 in10.0 miSSE (150°)6.9 mphMostly Cloudy
11:54 PM57.9 °F46.0 °F65 %30.25 in10.0 miCalmMostly Cloudy
Hourly data recorded from KSYR, located miles away from Syracuse, New York







STORIES FROM OUR PARTNERS